SCP
0 0 0 -0 -0 0 0 0 0 0 0 0 0 0 0 0 -0 0 -0 -0 0 0 0 -0 -0 -0 0 0 0 0 0 0 0 -0 -0 -0 -0 0 0 0 0 0 0 0
-0 0 -0 0 0 -0 0 0 0 0 0 0 0 0 -0 -0 -0 -0 -0 -0 0 0 0 0 0 0 0 0 0 0 0 0 0 0 -0 -0 -0 0 0 0 0 0 0 0
-0 -0 0 0 0 0 0 0 0 0 0 0 0 0 0 -0 0 -0 0 0 0 0 0 0 0 0 0 0 0 0 0 0 0 0 0 0 0 0 0 0 0 0 0 0
0 -0 -0 0 0 0 0 0 0 0 0 0 0 0 0 -0 -0 0 0 0 0 0 0 0 0 0 0 0 0 0 0 0 0 0 0 0 0 0 0 0 0 0 0 0
0 0 0 0 0 0 0 -0 0 0 0 0 0 0 0 -0 0 0 0 0 0 0 0 0 0 0 0 0 0 0 0 0 0 0 0 0 0 0 0 0 0 0 0 0
-0 -0 0 0 0 0 -0 0 0 0 0 0 0 0 0 0 0 0 0 0 0 0 0 0 0 0 0 0 0 0 0 0 0 0 0 0 0 0 0 0 0 0 0 0
0 0 -0 0 0 0 0 0 0 0 0 0 0 0 0 -0 -0 0 0 0 0 0 0 0 0 0 0 0 0 0 0 0 0 0 0 0 0 0 0 0 0 0 0 0
0 0 0 0 0 0 0 0 0 0 0 0 0 0 0 0 0 0 0 0 0 0 0 0 0 0 0 0 0 0 0 0 0 0 0 0 0 0 0 0 0 0 0 0
0 0 0 0 0 0 0 0 0 0 0 0 0 0 0 0 0 0 0 0 0 0 0 0 0 0 0 0 0 0 0 0 0 0 0 0 0 0 0 0 0 0 -0 0
0 0 0 0 0 0 0 0 0 0 0 0 0 0 0 0 0 0 0 0 0 0 0 0 0 0 0 0 0 0 0 0 0 0 0 0 0 0 0 0 0 -0 0 0
0 0 0 0 0 0 0 0 0 0 0 0 0 0 0 0 0 0 0 0 0 0 0 0 0 0 0 0 0 0 0 0 0 0 0 0 0 0 0 0 0 0 0 0
0 0 0 0 0 0 0 0 0 0 0 0 0 0 0 0 0 0 0 0 0 0 0 0 0 0 0 0 0 0 0 0 0 0 0 0 0 0 0 0 0 0 0 0
0 0 0 0 0 0 0 0 0 0 0 0 0 0 0 0 0 0 0 0 0 0 0 0 0 0 0 0 0 0 0 0 0 0 0 0 0 0 0 0 0 0 0 0
0 0 0 0 0 0 0 0 0 -0 0 0 0 0 0 0 0 0 0 0 0 0 0 0 0 0 0 0 0 0 0 0 0 0 0 0 0 0 0 0 0 0 0 0
0 0 0 0 -0 -0 0 -0 -0 -0 -0 0 0 0 0 0 0 0 0 0 0 0 0 0 0 0 0 0 0 0 0 0 0 0 0 0 0 0 0 0 0 0 0 0
0 0 0 0 -0 -0 -0 -0 -0 -0 0 0 0 0 0 0 0 0 0 0 0 0 0 0 0 0 0 0 0 0 0 0 0 0 0 0 0 0 0 0 0 0 0 0
0 0 0 0 0 0 0 0 -0 0 0 0 0 0 0 0 0 0 0 0 0 0 0 0 0 0 0 0 0 0 0 0 0 0 0 0 0 0 0 0 0 0 0 0
0 0 0 0 0 0 0 -0 -0 0 0 0 0 0 0 0 0 0 0 0 0 0 0 0 0 0 0 0 0 0 -0 0 0 0 0 0 0 0 0 0 0 0 0 0
0 0 0 0 0 0 -0 0 0 0 0 0 0 0 0 0 0 0 0 0 0 0 0 0 0 -0 0 0 0 0 -0 0 0 0 0 0 0 0 0 0 0 0 0 0
-0 0 -0 0 0 0 0 -0 0 0 0 0 0 0 0 0 0 0 0 0 0 0 0 0 0 0 0 0 0 -0 0 0 0 0 0 0 0 0 0 0 0 0 0 0
0 0 -0 -0 -0 0 0 0 0 0 0 0 0 0 0 0 0 0 0 0 0 0 0 0 0 0 0 0 0 -0 0 0 0 0 0 0 0 0 0 0 0 0 0 0
0 -0 -0 -0 -0 0 0 0 0 0 0 0 0 0 0 0 0 0 0 0 0 0 0 0 0 0 0 0 0 -0 0 0 0 0 -0 0 0 0 0 0 0 0 0 0
0 -0 0 -0 0 -0 -0 0 -0 0 0 0 0 0 0 0 0 0 0 0 0 0 0 0 0 0 0 0 -0 -0 0 0 0 -0 0 0 0 0 0 0 0 0 0 0
0 -0 -0 0 0 0 0 0 0 0 0 0 0 0 0 0 0 0 0 0 0 0 0 -0 -0 0 0 -0 -0 -0 0 0 0 0 0 0 0 0 0 0 0 0 0 0
0 0 0 0 0 0 0 0 0 0 0 0 0 0 0 0 0 0 0 0 0 0 0 0 -0 0 0 0 -0 -0 0 0 -0 -0 0 0 0 0 0 0 0 0 0 -0
0 0 0 0 0 0 0 0 0 0 0 0 0 0 0 0 0 0 0 0 0 0 0 0 0 -0 0 0 -0 -0 -0 0 -0 -0 0 0 0 0 0 0 0 0 0 0
Wind_Speed_500mb
14 6 11 24 16 10 10 8 12 13 15 37 37 34 21 16 26 24 27 26 25 20 16 13 10 0 8 7 19 20 19 25 25 26 44 46 40 32 27 21 23 24 26 22
9 13 23 8 19 28 12 7 10 31 48 45 30 22 11 19 16 23 30 25 23 17 11 2 6 6 8 7 12 15 22 27 32 44 50 47 41 30 27 29 26 24 26 25
18 26 11 16 12 14 7 5 3 27 34 40 48 17 10 11 15 15 19 19 16 13 9 3 2 3 10 6 12 23 23 27 35 48 46 44 48 42 35 30 28 24 26 26
9 15 21 17 13 12 16 10 14 30 15 11 17 9 6 1 5 25 19 22 26 13 8 4 9 10 6 9 12 7 20 34 44 42 44 42 39 35 30 29 26 22 22 23
4 10 15 18 5 9 3 3 9 9 14 11 13 11 5 8 5 12 19 25 21 11 12 5 15 4 5 6 8 19 28 33 37 45 44 40 36 33 32 34 32 24 23 25
3 4 7 5 3 13 2 17 18 11 9 9 16 8 6 4 12 12 23 25 16 10 11 5 6 7 5 3 13 26 37 41 44 51 41 45 42 34 36 33 29 27 22 22
10 11 9 12 13 15 23 16 8 10 10 4 8 14 7 7 12 19 33 27 15 12 8 14 12 6 12 18 25 35 44 34 34 38 39 46 44 40 32 31 30 25 20 15
10 15 12 12 1 4 9 12 9 4 5 8 11 6 4 3 25 27 27 20 23 14 11 19 14 11 14 26 35 40 28 33 35 43 42 38 38 35 31 35 30 19 14 12
8 8 7 9 14 9 8 7 3 8 10 10 2 2 5 17 19 30 27 24 20 24 21 14 10 14 25 29 28 29 30 32 39 51 40 33 37 44 38 30 24 18 12 21
9 2 8 10 19 21 13 5 10 8 5 6 4 2 2 16 18 19 26 27 33 31 22 11 10 20 25 27 24 20 27 34 38 44 38 35 30 31 33 29 24 16 22 22
6 7 13 12 8 7 12 10 11 9 6 8 8 4 9 12 15 19 28 26 41 31 17 10 15 22 21 19 18 23 28 33 36 42 43 40 34 34 25 25 20 19 23 17
8 8 5 3 7 9 9 8 9 9 2 6 7 2 8 28 32 40 36 39 40 27 15 14 20 21 23 18 17 21 30 29 38 40 39 42 38 31 32 27 24 18 13 12
6 8 5 14 13 15 13 8 9 11 7 4 8 5 16 30 38 34 46 42 33 19 10 15 23 20 20 22 16 22 28 34 32 38 32 36 38 37 31 28 25 21 15 13
8 5 10 9 7 5 17 20 11 15 9 1 3 16 9 11 13 36 42 35 25 12 12 16 18 18 17 19 20 22 28 34 35 31 35 32 30 33 36 36 32 22 17 16
9 5 9 17 35 37 30 25 24 18 10 9 7 10 16 15 27 39 41 33 23 16 13 13 15 18 15 17 18 22 28 33 33 33 32 31 34 36 36 37 39 31 23 17
6 2 5 17 33 39 33 31 25 26 19 13 11 6 14 24 34 44 38 26 22 16 10 10 13 12 11 16 15 18 24 28 28 29 31 32 27 32 37 42 46 45 33 33
5 6 5 8 5 15 20 17 22 20 17 3 9 4 25 20 33 36 29 22 16 7 6 6 12 8 9 14 17 18 18 23 25 28 32 36 35 32 32 41 40 43 32 27
5 5 4 7 7 10 7 10 26 25 13 14 16 12 26 35 34 30 15 11 10 8 7 9 7 6 10 11 16 15 16 18 21 30 29 29 32 30 31 29 32 33 32 32
43 5 7 8 7 5 20 5 8 4 10 10 20 28 37 42 33 18 11 9 8 5 8 11 6 6 11 15 14 14 13 16 15 25 24 28 33 32 38 34 31 31 33 37
9 9 10 4 9 5 8 19 33 20 7 9 26 28 37 28 4 8 13 2 6 9 11 9 12 11 12 16 16 12 16 18 18 23 23 24 24 27 33 34 27 25 29 33
9 8 12 6 7 5 12 32 9 11 8 10 15 12 9 7 6 21 9 6 4 9 8 7 7 11 15 13 11 13 12 18 19 24 21 20 22 23 22 17 17 23 21 22
9 6 7 6 8 4 19 13 11 11 16 15 12 9 17 22 20 15 10 10 4 1 2 4 3 8 12 11 9 8 14 13 13 9 10 17 20 23 28 18 10 12 10 10
8 0 6 6 8 12 20 31 27 15 13 9 5 15 18 23 17 11 12 9 2 2 2 5 3 6 9 4 7 6 10 10 9 11 12 13 15 21 26 30 15 8 3 9
14 22 6 8 7 23 23 17 11 9 6 3 7 12 14 14 5 6 7 3 4 8 3 4 1 4 7 4 7 10 12 6 7 4 9 13 17 21 21 18 19 22 23 17
7 10 7 7 12 18 13 7 14 15 9 3 3 3 5 3 3 3 3 1 2 9 5 4 4 4 3 6 7 9 7 6 5 7 8 14 12 18 33 33 19 14 18 30
20 8 4 7 5 5 7 11 21 12 6 4 4 10 8 6 3 7 6 5 7 9 13 13 8 7 6 9 6 7 3 6 2 3 13 18 12 24 34 34 16 16 11 18
Wind_Direction_500mb
311 80 238 257 217 162 150 114 208 75 99 68 94 116 120 145 179 150 138 144 151 141 121 102 80 356 284 309 8 6 2 2 356 348 348 351 343 322 320 309 315 294 295 305
7 242 241 259 93 113 116 97 93 60 87 98 116 118 137 170 162 160 155 158 154 136 112 129 251 234 312 10 11 344 341 349 345 347 349 348 338 329 317 307 316 303 300 301
206 245 242 102 96 107 125 131 52 129 90 124 125 88 100 76 115 141 166 168 148 134 151 176 12 299 322 270 349 353 342 334 339 345 343 345 339 336 327 323 324 329 318 306
103 51 78 60 39 80 41 326 37 127 166 185 211 120 95 132 41 120 101 139 149 137 141 205 343 25 16 341 346 334 331 343 346 347 341 338 341 344 338 330 327 325 313 302
315 46 54 65 66 93 162 346 32 58 71 116 38 90 96 198 92 116 127 153 164 142 179 24 48 46 17 319 308 338 336 347 355 349 342 349 350 341 331 323 316 301 295 291
80 219 84 180 89 47 119 39 35 45 85 55 321 115 313 243 155 156 172 187 153 156 210 175 129 205 356 68 341 345 345 349 341 335 355 352 349 346 340 336 334 335 323 294
342 334 327 50 24 22 56 51 3 4 29 81 297 54 214 226 188 171 177 177 178 157 124 124 130 60 15 358 348 340 337 353 4 360 353 347 339 334 344 350 345 339 340 348
57 2 14 1 27 119 77 125 140 265 189 175 16 83 211 157 127 154 160 158 147 120 122 109 92 56 13 354 349 1 22 12 11 3 356 3 9 5 358 352 350 355 350 27
58 342 359 18 32 65 335 27 175 128 65 85 119 89 121 117 131 140 131 144 127 133 129 116 82 25 3 358 18 22 17 17 9 4 4 6 13 16 8 14 15 25 28 58
348 336 14 350 55 31 100 238 28 10 86 96 68 292 188 156 171 141 149 137 139 132 126 112 33 14 16 24 29 30 22 16 7 6 12 10 8 9 15 28 38 33 72 70
41 82 315 42 13 100 21 26 57 108 79 141 150 260 229 178 161 158 154 146 144 145 132 91 40 24 32 35 40 34 23 11 16 17 17 20 24 21 16 30 46 41 61 64
13 126 77 186 303 111 94 105 104 114 42 63 112 6 141 135 161 153 150 142 148 139 121 64 27 31 42 41 44 30 23 25 21 11 18 20 27 29 34 34 33 34 47 45
334 9 40 344 355 0 72 22 108 99 91 353 113 176 125 137 161 166 148 146 143 135 87 41 38 49 34 31 41 29 26 21 24 23 15 20 33 35 33 30 32 39 41 45
101 77 149 173 227 140 63 47 44 101 77 46 78 130 137 177 145 135 147 144 132 113 81 55 50 39 35 52 42 32 27 18 24 24 25 28 20 24 25 26 28 29 41 46
90 62 46 59 82 72 63 73 64 76 156 97 161 132 195 185 145 151 146 136 127 121 87 48 38 38 57 54 38 39 30 23 23 25 20 22 36 42 35 32 34 39 46 45
31 317 36 64 78 69 65 62 73 77 71 84 115 76 119 125 120 134 142 127 119 113 79 36 34 40 67 40 29 21 33 21 22 27 32 40 40 50 49 50 43 45 58 52
86 109 72 128 106 56 44 66 77 64 40 85 63 122 122 90 113 127 126 121 110 83 61 64 30 94 54 30 20 27 21 21 30 50 51 54 61 57 48 33 39 41 52 51
10 75 87 120 48 59 300 51 97 84 49 54 91 102 128 125 123 127 122 113 136 126 80 24 40 105 25 22 14 20 25 43 64 54 53 56 48 41 32 37 34 46 62 73
358 97 59 88 57 357 267 331 305 173 20 48 112 129 134 131 121 119 123 114 112 73 45 29 75 63 17 5 23 21 46 74 64 50 59 50 54 43 42 54 64 71 77 81
303 65 98 124 113 165 267 309 330 136 55 28 108 152 164 169 79 208 168 161 117 49 53 55 73 36 24 28 38 35 75 74 54 55 62 60 54 54 69 61 62 71 70 73
343 344 67 11 95 60 309 327 80 80 231 108 100 126 162 168 197 166 177 159 99 47 42 54 35 21 23 23 36 48 69 90 61 84 74 57 56 46 41 42 66 73 72 69
26 14 25 57 75 36 341 348 81 155 128 100 72 112 131 140 152 164 176 174 144 334 104 354 291 8 14 10 87 80 100 83 76 94 73 60 35 27 25 26 34 61 64 63
26 354 125 127 188 126 101 116 113 104 95 78 86 161 144 160 170 179 184 188 244 202 98 358 88 11 5 70 125 133 91 86 51 93 80 58 35 13 11 23 38 22 339 359
352 47 76 67 58 127 123 117 98 83 124 103 59 149 171 154 175 201 193 258 143 168 151 336 111 21 38 74 115 120 126 43 76 83 45 32 15 2 2 10 22 49 47 18
347 28 26 38 111 116 142 121 143 144 136 120 145 209 211 198 188 219 208 249 174 196 211 259 300 295 86 106 124 125 118 105 30 51 17 12 21 348 348 340 320 344 29 36
7 349 106 218 173 146 193 190 178 172 174 285 242 200 226 288 247 249 229 216 229 239 261 270 261 222 176 162 155 156 101 162 288 354 348 346 3 356 358 359 327 294 326 29
Wind_Speed_850mb
14 6 11 24 16 10 10 8 12 13 15 37 37 34 21 16 26 24 27 26 25 20 16 13 10 0 8 7 19 20 19 25 25 26 44 46 40 32 27 21 23 24 26 22
9 13 23 8 19 28 12 7 10 31 48 45 30 22 11 19 16 23 30 25 23 17 11 2 6 6 8 7 12 15 22 27 32 44 50 47 41 30 27 29 26 24 26 25
18 26 11 16 12 14 7 5 3 27 34 40 48 17 10 11 15 15 19 19 16 13 9 3 2 3 10 6 12 23 23 27 35 48 46 44 48 42 35 30 28 24 26 26
9 15 21 17 13 12 16 10 14 30 15 11 17 9 6 1 5 25 19 22 26 13 8 4 9 10 6 9 12 7 20 34 44 42 44 42 39 35 30 29 26 22 22 23
4 10 15 18 5 9 3 3 9 9 14 11 13 11 5 8 5 12 19 25 21 11 12 5 15 4 5 6 8 19 28 33 37 45 44 40 36 33 32 34 32 24 23 25
3 4 7 5 3 13 2 17 18 11 9 9 16 8 6 4 12 12 23 25 16 10 11 5 6 7 5 3 13 26 37 41 44 51 41 45 42 34 36 33 29 27 22 22
10 11 9 12 13 15 23 16 8 10 10 4 8 14 7 7 12 19 33 27 15 12 8 14 12 6 12 18 25 35 44 34 34 38 39 46 44 40 32 31 30 25 20 15
10 15 12 12 1 4 9 12 9 4 5 8 11 6 4 3 25 27 27 20 23 14 11 19 14 11 14 26 35 40 28 33 35 43 42 38 38 35 31 35 30 19 14 12
8 8 7 9 14 9 8 7 3 8 10 10 2 2 5 17 19 30 27 24 20 24 21 14 10 14 25 29 28 29 30 32 39 51 40 33 37 44 38 30 24 18 12 21
9 2 8 10 19 21 13 5 10 8 5 6 4 2 2 16 18 19 26 27 33 31 22 11 10 20 25 27 24 20 27 34 38 44 38 35 30 31 33 29 24 16 22 22
6 7 13 12 8 7 12 10 11 9 6 8 8 4 9 12 15 19 28 26 41 31 17 10 15 22 21 19 18 23 28 33 36 42 43 40 34 34 25 25 20 19 23 17
8 8 5 3 7 9 9 8 9 9 2 6 7 2 8 28 32 40 36 39 40 27 15 14 20 21 23 18 17 21 30 29 38 40 39 42 38 31 32 27 24 18 13 12
6 8 5 14 13 15 13 8 9 11 7 4 8 5 16 30 38 34 46 42 33 19 10 15 23 20 20 22 16 22 28 34 32 38 32 36 38 37 31 28 25 21 15 13
8 5 10 9 7 5 17 20 11 15 9 1 3 16 9 11 13 36 42 35 25 12 12 16 18 18 17 19 20 22 28 34 35 31 35 32 30 33 36 36 32 22 17 16
9 5 9 17 35 37 30 25 24 18 10 9 7 10 16 15 27 39 41 33 23 16 13 13 15 18 15 17 18 22 28 33 33 33 32 31 34 36 36 37 39 31 23 17
6 2 5 17 33 39 33 31 25 26 19 13 11 6 14 24 34 44 38 26 22 16 10 10 13 12 11 16 15 18 24 28 28 29 31 32 27 32 37 42 46 45 33 33
5 6 5 8 5 15 20 17 22 20 17 3 9 4 25 20 33 36 29 22 16 7 6 6 12 8 9 14 17 18 18 23 25 28 32 36 35 32 32 41 40 43 32 27
5 5 4 7 7 10 7 10 26 25 13 14 16 12 26 35 34 30 15 11 10 8 7 9 7 6 10 11 16 15 16 18 21 30 29 29 32 30 31 29 32 33 32 32
43 5 7 8 7 5 20 5 8 4 10 10 20 28 37 42 33 18 11 9 8 5 8 11 6 6 11 15 14 14 13 16 15 25 24 28 33 32 38 34 31 31 33 37
9 9 10 4 9 5 8 19 33 20 7 9 26 28 37 28 4 8 13 2 6 9 11 9 12 11 12 16 16 12 16 18 18 23 23 24 24 27 33 34 27 25 29 33
9 8 12 6 7 5 12 32 9 11 8 10 15 12 9 7 6 21 9 6 4 9 8 7 7 11 15 13 11 13 12 18 19 24 21 20 22 23 22 17 17 23 21 22
9 6 7 6 8 4 19 13 11 11 16 15 12 9 17 22 20 15 10 10 4 1 2 4 3 8 12 11 9 8 14 13 13 9 10 17 20 23 28 18 10 12 10 10
8 0 6 6 8 12 20 31 27 15 13 9 5 15 18 23 17 11 12 9 2 2 2 5 3 6 9 4 7 6 10 10 9 11 12 13 15 21 26 30 15 8 3 9
14 22 6 8 7 23 23 17 11 9 6 3 7 12 14 14 5 6 7 3 4 8 3 4 1 4 7 4 7 10 12 6 7 4 9 13 17 21 21 18 19 22 23 17
7 10 7 7 12 18 13 7 14 15 9 3 3 3 5 3 3 3 3 1 2 9 5 4 4 4 3 6 7 9 7 6 5 7 8 14 12 18 33 33 19 14 18 30
20 8 4 7 5 5 7 11 21 12 6 4 4 10 8 6 3 7 6 5 7 9 13 13 8 7 6 9 6 7 3 6 2 3 13 18 12 24 34 34 16 16 11 18
Wind_Direction_850mb
311 80 238 257 217 162 150 114 208 75 99 68 94 116 120 145 179 150 138 144 151 141 121 102 80 356 284 309 8 6 2 2 356 348 348 351 343 322 320 309 315 294 295 305
7 242 241 259 93 113 116 97 93 60 87 98 116 118 137 170 162 160 155 158 154 136 112 129 251 234 312 10 11 344 341 349 345 347 349 348 338 329 317 307 316 303 300 301
206 245 242 102 96 107 125 131 52 129 90 124 125 88 100 76 115 141 166 168 148 134 151 176 12 299 322 270 349 353 342 334 339 345 343 345 339 336 327 323 324 329 318 306
103 51 78 60 39 80 41 326 37 127 166 185 211 120 95 132 41 120 101 139 149 137 141 205 343 25 16 341 346 334 331 343 346 347 341 338 341 344 338 330 327 325 313 302
315 46 54 65 66 93 162 346 32 58 71 116 38 90 96 198 92 116 127 153 164 142 179 24 48 46 17 319 308 338 336 347 355 349 342 349 350 341 331 323 316 301 295 291
80 219 84 180 89 47 119 39 35 45 85 55 321 115 313 243 155 156 172 187 153 156 210 175 129 205 356 68 341 345 345 349 341 335 355 352 349 346 340 336 334 335 323 294
342 334 327 50 24 22 56 51 3 4 29 81 297 54 214 226 188 171 177 177 178 157 124 124 130 60 15 358 348 340 337 353 4 360 353 347 339 334 344 350 345 339 340 348
57 2 14 1 27 119 77 125 140 265 189 175 16 83 211 157 127 154 160 158 147 120 122 109 92 56 13 354 349 1 22 12 11 3 356 3 9 5 358 352 350 355 350 27
58 342 359 18 32 65 335 27 175 128 65 85 119 89 121 117 131 140 131 144 127 133 129 116 82 25 3 358 18 22 17 17 9 4 4 6 13 16 8 14 15 25 28 58
348 336 14 350 55 31 100 238 28 10 86 96 68 292 188 156 171 141 149 137 139 132 126 112 33 14 16 24 29 30 22 16 7 6 12 10 8 9 15 28 38 33 72 70
41 82 315 42 13 100 21 26 57 108 79 141 150 260 229 178 161 158 154 146 144 145 132 91 40 24 32 35 40 34 23 11 16 17 17 20 24 21 16 30 46 41 61 64
13 126 77 186 303 111 94 105 104 114 42 63 112 6 141 135 161 153 150 142 148 139 121 64 27 31 42 41 44 30 23 25 21 11 18 20 27 29 34 34 33 34 47 45
334 9 40 344 355 0 72 22 108 99 91 353 113 176 125 137 161 166 148 146 143 135 87 41 38 49 34 31 41 29 26 21 24 23 15 20 33 35 33 30 32 39 41 45
101 77 149 173 227 140 63 47 44 101 77 46 78 130 137 177 145 135 147 144 132 113 81 55 50 39 35 52 42 32 27 18 24 24 25 28 20 24 25 26 28 29 41 46
90 62 46 59 82 72 63 73 64 76 156 97 161 132 195 185 145 151 146 136 127 121 87 48 38 38 57 54 38 39 30 23 23 25 20 22 36 42 35 32 34 39 46 45
31 317 36 64 78 69 65 62 73 77 71 84 115 76 119 125 120 134 142 127 119 113 79 36 34 40 67 40 29 21 33 21 22 27 32 40 40 50 49 50 43 45 58 52
86 109 72 128 106 56 44 66 77 64 40 85 63 122 122 90 113 127 126 121 110 83 61 64 30 94 54 30 20 27 21 21 30 50 51 54 61 57 48 33 39 41 52 51
10 75 87 120 48 59 300 51 97 84 49 54 91 102 128 125 123 127 122 113 136 126 80 24 40 105 25 22 14 20 25 43 64 54 53 56 48 41 32 37 34 46 62 73
358 97 59 88 57 357 267 331 305 173 20 48 112 129 134 131 121 119 123 114 112 73 45 29 75 63 17 5 23 21 46 74 64 50 59 50 54 43 42 54 64 71 77 81
303 65 98 124 113 165 267 309 330 136 55 28 108 152 164 169 79 208 168 161 117 49 53 55 73 36 24 28 38 35 75 74 54 55 62 60 54 54 69 61 62 71 70 73
343 344 67 11 95 60 309 327 80 80 231 108 100 126 162 168 197 166 177 159 99 47 42 54 35 21 23 23 36 48 69 90 61 84 74 57 56 46 41 42 66 73 72 69
26 14 25 57 75 36 341 348 81 155 128 100 72 112 131 140 152 164 176 174 144 334 104 354 291 8 14 10 87 80 100 83 76 94 73 60 35 27 25 26 34 61 64 63
26 354 125 127 188 126 101 116 113 104 95 78 86 161 144 160 170 179 184 188 244 202 98 358 88 11 5 70 125 133 91 86 51 93 80 58 35 13 11 23 38 22 339 359
352 47 76 67 58 127 123 117 98 83 124 103 59 149 171 154 175 201 193 258 143 168 151 336 111 21 38 74 115 120 126 43 76 83 45 32 15 2 2 10 22 49 47 18
347 28 26 38 111 116 142 121 143 144 136 120 145 209 211 198 188 219 208 249 174 196 211 259 300 295 86 106 124 125 118 105 30 51 17 12 21 348 348 340 320 344 29 36
7 349 106 218 173 146 193 190 178 172 174 285 242 200 226 288 247 249 229 216 229 239 261 270 261 222 176 162 155 156 101 162 288 354 348 346 3 356 358 359 327 294 326 29